FW3241 Weather Reports


Display with metric or nautical units.
time (UTC)temp
F
wind
direction
speed
MPH
gust
MPH
rain 1hr
in
rain 24hr
in
rain mn
in
humidity
%
barometer
mb
20210926014607 52 49 0.0 0.0 0.00 0.00 0.00 80 1021.4
20210926013142 53 49 0.0 0.0 0.00 0.00 0.00 80 1021.5
20210926011627 53 49 0.0 1.0 0.00 0.00 0.00 79 1021.4
20210926010135 53 49 0.0 2.0 0.00 0.00 0.00 80 1021.2
20210926004551 53 34 0.0 0.0 0.00 0.00 0.00 80 1021.0
20210926003047 53 321 0.0 0.0 0.00 0.00 0.00 79 1020.9
20210926001620 53 321 0.0 0.0 0.00 0.00 0.00 78 1020.8
20210926000057 54 322 0.0 0.0 0.00 0.00 0.00 77 1020.7
20210925234536 55 322 0.0 0.0 0.00 0.00 0.00 74 1020.8
20210925233043 56 321 0.0 0.0 0.00 0.00 0.00 72 1020.7
20210925231612 56 322 0.0 0.0 0.00 0.00 0.00 71 1020.5
20210925230044 57 321 0.0 0.0 0.00 0.00 0.00 70 1020.3
20210925224538 57 322 0.0 0.0 0.00 0.00 0.00 70 1020.2
20210925223033 57 321 0.0 0.0 0.00 0.00 0.00 70 1020.2
20210925221620 57 321 0.0 0.0 0.00 0.00 0.00 69 1020.0
20210925220038 58 321 0.0 0.0 0.00 0.00 0.00 69 1019.9
20210925214525 58 321 0.0 0.0 0.00 0.00 0.00 67 1020.0
20210925213053 59 321 0.0 0.0 0.00 0.00 0.00 65 1019.8
20210925211606 59 269 0.0 0.0 0.00 0.00 0.00 67 1019.8
20210925210029 58 292 0.0 0.0 0.00 0.00 0.00 66 1020.0
20210925204537 58 292 0.0 0.0 0.00 0.00 0.00 67 1020.1
20210925203026 58 34 0.0 0.0 0.00 0.00 0.00 65 1020.7
20210925201514 58 34 0.0 0.0 0.00 0.00 0.00 69 1020.7
20210925200033 58 34 0.0 0.0 0.00 0.00 0.00 67 1020.9
20210925194510 58 36 0.0 0.0 0.00 0.00 0.00 68 1021.2
20210925193100 58 5 0.0 0.0 0.00 0.00 0.00 69 1021.3
20210925191519 58 323 0.0 0.0 0.00 0.00 0.00 69 1021.3
20210925190014 58 38 0.0 0.0 0.00 0.00 0.00 69 1021.5
20210925184508 58 38 0.0 0.0 0.00 0.00 0.00 69 1021.5
20210925183027 58 15 0.0 0.0 0.00 0.00 0.00 69 1021.5
20210925181507 58 35 0.0 0.0 0.00 0.00 0.00 71 1021.7
20210925180004 58 12 0.0 0.0 0.00 0.00 0.00 72 1021.8
20210925174511 57 274 0.0 0.0 0.00 0.00 0.00 71 1021.7
20210925173237 57 36 0.0 0.0 0.00 0.00 0.00 70 1021.8
20210925171706 57 355 0.0 0.0 0.00 0.00 0.00 71 1022.2
20210925170128 56 287 0.0 0.0 0.00 0.00 0.00 74 1022.3
20210925164650 55 285 0.0 0.0 0.00 0.00 0.00 76 1022.2
20210925163106 54 327 0.0 0.0 0.00 0.00 0.00 77 1022.2
20210925161559 54 279 0.0 0.0 0.00 0.00 0.00 78 1022.4
20210925160126 55 279 0.0 0.0 0.00 0.00 0.00 77 1022.2
20210925154657 55 215 0.0 0.0 0.00 0.00 0.00 75 1022.2
20210925153119 55 213 0.0 0.0 0.00 0.00 0.00 75 1022.4
20210925151611 54 213 0.0 0.0 0.00 0.00 0.00 76 1022.3
20210925150111 53 200 0.0 0.0 0.00 0.00 0.00 80 1022.4
20210925144620 52 206 0.0 0.0 0.00 0.00 0.00 79 1022.5
20210925143116 51 199 0.0 0.0 0.00 0.00 0.00 79 1022.4
20210925141557 51 182 0.0 2.0 0.00 0.00 0.00 81 1022.2
20210925140052 51 205 0.0 2.0 0.00 0.00 0.00 80 1022.2
20210925134543 51 205 0.0 3.0 0.00 0.00 0.00 79 1022.0
20210925133149 51 211 0.0 3.0 0.00 0.00 0.00 79 1022.0
20210925131602 50 180 1.0 3.0 0.00 0.00 0.00 80 1022.0
20210925130058 50 191 2.0 3.0 0.00 0.00 0.00 79 1022.0
20210925124636 50 192 1.0 4.0 0.00 0.00 0.00 80 1021.9
20210925123102 50 178 1.0 4.0 0.00 0.00 0.00 79 1022.0
20210925121547 50 192 1.0 4.0 0.00 0.00 0.00 80 1021.7
20210925120059 50 178 1.0 3.0 0.00 0.00 0.00 81 1021.6
20210925114624 49 192 1.0 3.0 0.00 0.00 0.00 81 1021.4
20210925113038 49 192 1.0 3.0 0.00 0.00 0.00 82 1021.4
20210925111601 49 206 1.0 3.0 0.00 0.00 0.00 81 1021.5
20210925110031 50 198 1.0 3.0 0.00 0.00 0.00 81 1021.5
20210925104539 50 184 1.0 3.0 0.00 0.00 0.00 81 1021.3
20210925103058 50 202 1.0 3.0 0.00 0.00 0.00 81 1021.3
20210925101558 50 196 1.0 3.0 0.00 0.00 0.00 81 1021.2
20210925100024 50 196 1.0 3.0 0.00 0.00 0.00 82 1021.1
20210925094524 50 197 1.0 3.0 0.00 0.00 0.00 82 1021.2
20210925093107 50 200 0.0 2.0 0.00 0.00 0.00 82 1021.0
20210925091530 50 198 1.0 2.0 0.00 0.00 0.00 82 1021.1
20210925090020 50 225 1.0 3.0 0.00 0.00 0.00 82 1021.1
20210925084518 50 191 0.0 1.0 0.00 0.00 0.00 83 1021.1
20210925083032 49 191 0.0 2.0 0.00 0.00 0.00 82 1021.0
20210925081523 49 191 0.0 2.0 0.00 0.00 0.00 83 1021.0
20210925080025 49 141 0.0 0.0 0.00 0.00 0.00 84 1021.1
20210925074528 49 99 0.0 0.0 0.00 0.00 0.00 83 1021.4
20210925073013 50 99 0.0 0.0 0.00 0.00 0.00 83 1021.3
20210925071506 50 99 0.0 0.0 0.00 0.00 0.00 83 1021.7
20210925070017 50 99 0.0 0.0 0.00 0.00 0.00 83 1021.7
20210925064504 50 99 0.0 0.0 0.00 0.00 0.00 83 1021.9
20210925063005 50 99 0.0 0.0 0.00 0.00 0.00 82 1022.1
20210925061502 50 99 0.0 0.0 0.00 0.00 0.00 82 1022.0
20210925060000 50 99 0.0 0.0 0.00 0.00 0.00 80 1022.0
20210925054650 50 17 0.0 0.0 0.00 0.00 0.00 81 1022.1
20210925053118 50 17 0.0 0.0 0.00 0.00 0.00 81 1022.2
20210925051631 50 17 0.0 0.0 0.00 0.00 0.00 79 1022.3
20210925050155 50 17 0.0 0.0 0.00 0.00 0.00 79 1022.3
20210925044625 50 17 0.0 0.0 0.00 0.00 0.00 76 1022.4
20210925043138 50 17 0.0 0.0 0.00 0.00 0.00 77 1022.5
20210925041639 50 17 0.0 0.0 0.00 0.00 0.00 76 1022.6
20210925040123 50 17 0.0 0.0 0.00 0.00 0.00 76 1022.7
20210925034834 50 17 0.0 0.0 0.00 0.00 0.00 76 1022.6
20210925033237 50 17 0.0 0.0 0.00 0.00 0.00 74 1022.6
20210925031631 50 17 0.0 0.0 0.00 0.00 0.00 74 1022.6
20210925030136 50 17 0.0 0.0 0.00 0.00 0.00 74 1022.6
20210925024630 51 17 0.0 0.0 0.00 0.00 0.00 73 1022.7
20210925023238 51 17 0.0 0.0 0.00 0.00 0.00 74 1022.6
20210925021639 51 17 0.0 0.0 0.00 0.00 0.00 73 1022.7
20210925020046 51 17 0.0 0.0 0.00 0.00 0.00 73 1022.8